Location: Maccacari
(45.1333°N, 11.1333°E)
Time: 08:37:33
(UTC+00:00)

ATLAS 2AS CENTAUR R/B - Pass Details

Date: 18 September 2020
Orbit: 939 x 1273 km, 63.7° (Epoch: 27 October)

Event Time Altitude Azimuth Distance (km) Brightness Sun altitude
Rises 19:11:50 0° 180° (S) 4,168 5.6 -20.0°
Reaches altitude 10° 19:14:54 10° 171° (S) 3,231 4.9 -20.4°
Enters shadow 19:16:58 18° 161° (SSE) 2,675 4.4 -20.8°
Exits shadow 19:24:46 25° 74° (ENE) 2,325 4.0 -22.0°
Drops below altitude 10° 19:28:30 10° 52° (NE) 3,255 5.0 -22.6°
Sets 19:31:34 0° 44° (NE) 4,204 5.7 -23.1°
